Regional Weather Roundup
Issued by NWS

Home | Current Version | Previous Version | Graphics & Text | Print | Product List | Glossary On
Versions: 1 2 3 4 5 6 7 8 9 10 11 12 13 14 15 16 17 18 19 20 21 22 23 24 25 26 27 28 29 30 31 32 33 34 35 36 37 38 39 40 41 42 43 44 45 46 47 48 49 50
489
ASUS45 KTFX 300110
RWRMT
MONTANA REGIONAL WEATHER ROUNDUP
NATIONAL WEATHER SERVICE GREAT FALLS MT
700 PM MDT WED MAR 29 2017

NOTE: "FAIR" INDICATES FEW OR NO CLOUDS BELOW 12000 FEET WITH NO
SIGNIFICANT WEATHER AND/OR OBSTRUCTIONS TO VISIBILITY.

MTZ001>007-043-300200-
WEST OF THE DIVIDE

CITY           SKY/WX    TMP DP  RH WIND       PRES   REMARKS
KALISPELL      LGT RAIN  45  41  86 S5        29.86F
MISSOULA       CLOUDY    49  41  74 S6        29.92S
BUTTE          CLOUDY    47  35  63 SW6       29.94S
MULLAN PASS    MIX PCPN  33  33 100 VRB5      29.87F VSB 1/4
ANACONDA         N/A     45  37  76 S8        29.92S
DEER LODGE       N/A     46  41  81 NE5       29.93S
EUREKA           N/A     46  37  71 SE14      29.82F
HAMILTON         N/A     46  41  81 SE13      29.94S
RONAN            N/A     50  40  68 SE8       29.93S
$$

MTZ008-052>055-300200-
SOUTHWEST MONTANA

CITY           SKY/WX    TMP DP  RH WIND       PRES   REMARKS
BOZEMAN        CLOUDY    55  34  45 W20G33    29.89S
DILLON         LGT RAIN  45  38  76 S14       29.95S
W YELLOWSTONE  MIX PCPN  36  32  87 S8        30.06F WCI  29
ENNIS          CLOUDY    45  34  65 S20       30.02R
THREE FORKS      N/A     51 -33   2 SW5       29.92R
$$

MTZ009-010-012-014-046-048-049-054-300200-
EAST SLOPES AND CENTRAL MONTANA

CITY           SKY/WX    TMP DP  RH WIND       PRES   REMARKS
CUT BANK       CLOUDY    48  32  53 W28       29.75S
GREAT FALLS    PTCLDY    54  34  46 SW31G38   29.76F
MALMSTROM AFB  CLOUDY    55  35  48 W17G31    29.79F
HELENA         CLOUDY    55  41  59 SW6       29.86F
AUGUSTA          N/A     51  32  49 SW21      29.79S
BOWMANS CRNR     N/A     47  35  62 SW22G28   29.80S
CHOTEAU          N/A     55  32  41 W14G22    29.78S
CONRAD           N/A     52  36  54 CALM      29.82S
FAIRFIELD        N/A     54  31  41 SW17      29.77F
POWER            N/A     53  34  49 SW15      29.77F
RAYNESFORD       N/A     53  33  45 W15       29.80F
$$

MTZ011-013-016-021-045-047-050-051-300200-
NORTH CENTRAL MONTANA

CITY           SKY/WX    TMP DP  RH WIND       PRES   REMARKS
HAVRE          CLOUDY    55  36  48 SW8       29.78F
LEWISTOWN      CLOUDY    53  31  42 W12       29.83F
N BAR RANCH    MOCLDY    52  30  43 W10       29.85S
CHINOOK          N/A     57  34  41 SW9       29.78S
DENTON         MOCLDY    55  32  42 W7        29.78F
FORT BENTON      N/A     57  34  41 MISG      29.78F
GEYSER         MOCLDY    54  32  43 W14G23    29.80F
GRASS RANGE    MOCLDY    53  31  43 W15       29.79F
JUDITH GAP     MOCLDY    51  32  48 W13       29.84F
STANFORD       MOCLDY    53  32  43 NW7       29.82F
WINIFRED       CLOUDY    53  31  42 W3        29.80F
$$

MTZ017>020-022>027-061-062-300200-
NORTHEAST MONTANA

CITY           SKY/WX    TMP DP  RH WIND       PRES   REMARKS
GLASGOW        CLOUDY    56  28  34 SW8       29.82F
JORDAN           N/A     55  31  39 E5        29.82F
SIDNEY         CLEAR     52  30  43 NW9       29.86S
WOLF POINT     PTCLDY    56  30  37 CALM      29.84F
MALTA          PTCLDY    55  30  38 SE5       29.79F
PLENTYWOOD       N/A     55  27  33 W9        29.83S
POPLAR           N/A     55  30  38 S3        29.85F
$$

MTZ028>42-056>058-300200-
SOUTHCENTRAL AND SOUTHEAST MONTANA

CITY           SKY/WX    TMP DP  RH WIND       PRES   REMARKS
BAKER          CLEAR     54  28  36 NW5       29.89F
BILLINGS       CLOUDY    58  34  40 SE6       29.83F
LIVINGSTON     CLOUDY    53  30  41 SW31G38   29.87R
MILES CITY     CLEAR     56  28  34 CALM      29.87F
BIG TIMBER     CLOUDY    55  30  38 W25G33    29.86F
FORSYTH          N/A     57  34  41 E3        29.84F
HARLOWTON      MOCLDY    54  32  42 W16       29.83F
LAUREL           N/A     60  31  33 W2        29.84S
$$

REGIONAL REPORTS...DAKOTAS

CITY           SKY/WX    TMP DP  RH WIND       PRES   REMARKS
WILLISTON      CLEAR     56  31  38 SW7       29.85F
MINOT          PTCLDY    51  45  79 SE6       29.86F
DICKINSON      CLEAR     51  30  44 NW8       29.85F
BEACH            N/A     54  28  37 W5        29.90F
TIOGA            N/A     54  36  50 SW8       29.86F
WATFORD CITY     N/A     55  32  41 NW6       29.85F
BISMARCK       CLOUDY    53  38  56 SE9       29.92F
GRAND FORKS    PTCLDY    53  42  66 S13       29.99F
FARGO          CLEAR     54  36  50 S18G25    30.05S
BUFFALO SD       N/A     58  32  37 NE3       29.83F
RAPID CITY     CLEAR     51  39  63 SE8       29.94F
$$

REGIONAL REPORTS...WYOMING/IDAHO/WASHINGTON

CITY           SKY/WX    TMP DP  RH WIND       PRES   REMARKS
GILLETTE       CLEAR     54  30  40 SE3       29.90F
SHERIDAN       CLEAR     57  30  35 SE6       29.85F
BUFFALO WY     CLEAR     56  27  32 E7        29.89F
CODY           CLOUDY    54  28  36 W24G35    29.91F
YELLOWSTONE LA   N/A     33  29  85 VRB3      30.09F
IDAHO FALLS    CLOUDY    53  34  48 SW14      30.04F
SALMON         CLOUDY    45  43  93 CALM      29.97S
BOISE          CLOUDY    55  46  71 S6        30.00S
SPOKANE        CLOUDY    49  44  83 S14G21    29.83F
$$

REGIONAL REPORTS...ALBERTA

CITY           SKY/WX    TMP DP  RH WIND       PRES   REMARKS
EDMONTON       MOCLDY    46  37  71 E9        29.71F
CALGARY        CLOUDY    48  28  46 SE9       29.66F
LETHBRIDGE     MOCLDY    54  30  40 SW12G23   29.70F
MEDICINE HAT   CLOUDY    55  32  41 SW10G17   29.73F
WATERTON GATE    N/A     45  30  57 SW21G32     N/A
CARDSTON         N/A     50  28  43 SW8G18      N/A
MILK RIVER       N/A     52  32  46 SW10        N/A
$$

REGIONAL REPORTS...SASKATCHEWAN

CITY           SKY/WX    TMP DP  RH WIND       PRES   REMARKS
SWIFT CURRENT  MOCLDY    50  25  37 SW8       29.76F
REGINA         PTCLDY    52  30  43 W6        29.78F
SASKATOON      PTCLDY    45  37  76 N7        29.80R
CYPRESS HILLS    N/A     46  25  42 S8          N/A
VAL MARIE        N/A     50  28  43 S6          N/A
ROCKGLEN         N/A     48  27  43 W9          N/A
ASSINIBOIA       N/A     43  37  81 E7          N/A
$$




USA.gov is the U.S. government's official web portal to all federal, state and local government web resources and services.